Regional Weather Roundup
Issued by NWS Green Bay, WI

Home | Current Version | Previous Version | Graphics & Text | Print | Product List | Glossary Off
Versions: 1 2 3 4 5 6 7 8 9 10 11 12 13 14 15 16 17 18 19 20 21 22 23 24 25 26 27 28 29 30 31 32 33 34 35 36 37 38 39 40 41 42 43 44 45 46 47 48 49 50

000
ASUS43 KGRB 290200
RWRGRB

NORTH-CENTRAL AND NORTHEAST WISCONSIN REGIONAL WEATHER ROUNDUP
NATIONAL WEATHER SERVICE GREEN BAY WI
900 PM CDT THU MAY 28 2015

WIZ005-009-010>012-018-019-290300-
NORTH CENTRAL WISCONSIN

CITY           SKY/WX    TMP DP  RH WIND       PRES   REMARKS
IRONWOOD       CLEAR     73  52  46 S7        29.93R
MANITOWISH WTR NOT AVBL
ARBOR VITAE    NOT AVBL
EAGLE RIVER    NOT AVBL
LAND O LAKES   NOT AVBL
RHINELANDER    MOCLDY    72  54  53 S6        30.03S
PHILLIPS       NOT AVBL
ANTIGO         NOT AVBL
TOMAHAWK       NOT AVBL
MERRILL        NOT AVBL
$$

WIZ013-073-290300-
NORTHEAST WISCONSIN

CITY           SKY/WX    TMP DP  RH WIND       PRES   REMARKS
IRON MOUNTAIN  MOCLDY    66  61  84 S6        30.03S
MARINETTE      PTCLDY    70  54  56 S7        30.05S
$$

WIZ017-030-035>037-045-290300-
CENTRAL WISCONSIN

CITY           SKY/WX    TMP DP  RH WIND       PRES   REMARKS
MEDFORD        NOT AVBL
WAUSAU         CLEAR     71  55  56 S7        30.01S
MOSINEE        CLEAR     66  57  72 S7        30.04S
MARSHFIELD     CLEAR     67  55  65 S8        30.01F
WISC RAPIDS    CLEAR     71  53  52 S6        30.03F
STEVENS POINT  NOT AVBL
WAUPACA        NOT AVBL
SHAWANO        NOT AVBL
CLINTONVILLE   NOT AVBL
$$

WIZ038-039-048-051-290300-
FOX VALLEY

CITY           SKY/WX    TMP DP  RH WIND       PRES   REMARKS
NWS GREEN BAY  CLEAR     70  57  63 S9        30.06S
APPLETON       PTCLDY    70  57  64 SE8       30.06F
OSHKOSH        CLEAR     72  58  61 SE8       30.05F
FOND DU LAC    CLEAR     69  57  65 SE10      30.05F
$$

WIZ022-050-052-290300-
EAST CENTRAL WISCONSIN

CITY           SKY/WX    TMP DP  RH WIND       PRES   REMARKS
STURGEON BAY   PTCLDY    66  52  59 S12G20    30.10S
MANITOWOC      NOT AVBL
SHEBOYGAN      CLEAR     65  55  70 S5        30.08F
$$

LMZ563-521-522-541>543-290300-
LAKESHORE

STATION/POSITION TIME  TEMP    WIND        PRES    VSBY  WAVE
                       AIR SEA DIR/SP/G                  HT/PER
                 (UTC) (F)     (DEG/KT/KT) (MB)    (MI)  (FT/S)
SHEBOYGAN LKSHOR 0100   61     180/ 18/ 19 1019.6F
KEWAUNEE LKSHORE 0100   53     180/ 12/ 14 1018.4F
NORTHPORT PIER   0100   60     160/  7/ 11 1018.6F
N MID LAKE BUOY  0050   42 37  190/ 12/ 12 1019.6F         1
SISTER BAY LKSHO 0118   65     180/ 12/ 16   N/A
CHAMBERS ISLAND  0100   68     130/  4/  9 1017.9F
MENOMINEE LKSHOR 0100   65     170/  7/  9 1018.5F
$$



USA.gov is the U.S. government's official web portal to all federal, state and local government web resources and services.